Time,TemperatureF,DewpointF,PressureIn,WindDirection,WindDirectionDegrees,WindSpeedMPH,WindSpeedGustMPH,Humidity,HourlyPrecipIn,Conditions,Clouds,dailyrainin,SoftwareType,DateUTC
2013-02-04 00:01:00,28.3,12.5,29.95,West,270,5.4,5.4,51,0.00,,,0.00,WUHU216HW,2013-02-04 05:01:00,
2013-02-04 00:02:00,28.3,12.5,29.95,West,270,6.3,8.1,51,0.00,,,0.00,WUHU216HW,2013-02-04 05:02:00,
2013-02-04 00:03:00,28.3,12.5,29.95,WSW,248,6.3,8.1,51,0.00,,,0.00,WUHU216HW,2013-02-04 05:03:00,
2013-02-04 00:08:00,28.3,12.5,29.95,WSW,248,6.3,8.1,51,0.00,,,0.00,WUHU216HW,2013-02-04 05:08:00,
2013-02-04 00:30:00,27.7,12.3,29.97,West,270,4.0,4.0,52,0.00,,,0.00,WUHU216HW,2013-02-04 05:30:00,
2013-02-04 00:35:00,27.5,12.6,29.97,West,270,2.0,4.0,53,0.00,,,0.00,WUHU216HW,2013-02-04 05:35:00,
2013-02-04 00:40:00,27.2,12.6,29.97,WSW,248,1.1,3.6,54,0.00,,,0.00,WUHU216HW,2013-02-04 05:40:00,
2013-02-04 00:45:00,26.6,13.0,29.97,NE,45,0.0,2.2,56,0.00,,,0.00,WUHU216HW,2013-02-04 05:45:00,
2013-02-04 00:50:00,25.9,12.2,29.97,WNW,293,0.0,1.1,56,0.00,,,0.00,WUHU216HW,2013-02-04 05:50:00,
2013-02-04 00:55:00,25.9,12.2,29.97,West,270,0.4,0.4,56,0.00,,,0.00,WUHU216HW,2013-02-04 05:55:00,
2013-02-04 01:00:00,26.8,12.2,29.96,WNW,293,2.2,2.2,54,0.00,,,0.00,WUHU216HW,2013-02-04 06:00:00,
2013-02-04 01:05:00,26.6,12.5,29.96,WNW,293,2.2,2.7,55,0.00,,,0.00,WUHU216HW,2013-02-04 06:05:00,
2013-02-04 01:10:00,26.8,12.2,29.96,West,270,2.7,6.0,54,0.00,,,0.00,WUHU216HW,2013-02-04 06:10:00,
2013-02-04 01:15:00,26.6,12.5,29.96,West,270,2.0,6.0,55,0.00,,,0.00,WUHU216HW,2013-02-04 06:15:00,
2013-02-04 01:20:00,26.5,12.3,29.96,West,270,2.2,4.7,55,0.00,,,0.00,WUHU216HW,2013-02-04 06:20:00,
2013-02-04 01:25:00,26.5,12.3,29.96,West,270,2.2,4.7,55,0.00,,,0.00,WUHU216HW,2013-02-04 06:25:00,
2013-02-04 01:30:00,26.5,12.3,29.97,WNW,293,5.6,5.6,55,0.00,,,0.00,WUHU216HW,2013-02-04 06:30:00,
2013-02-04 01:35:00,26.6,12.1,29.97,West,270,2.5,5.6,54,0.00,,,0.00,WUHU216HW,2013-02-04 06:35:00,
2013-02-04 01:40:00,26.6,12.1,29.97,West,270,2.5,4.3,54,0.00,,,0.00,WUHU216HW,2013-02-04 06:40:00,
2013-02-04 01:49:00,26.3,12.2,29.97,SW,225,2.7,2.7,55,0.00,,,0.00,WUHU216HW,2013-02-04 06:49:00,
2013-02-04 01:54:00,26.1,12.4,29.97,South,180,1.3,3.6,56,0.00,,,0.00,WUHU216HW,2013-02-04 06:54:00,
2013-02-04 01:59:00,25.9,12.2,29.97,SW,225,2.9,4.0,56,0.00,,,0.00,WUHU216HW,2013-02-04 06:59:00,
2013-02-04 02:04:00,26.1,12.4,29.98,West,270,0.4,4.0,56,0.00,,,0.00,WUHU216HW,2013-02-04 07:04:00,
2013-02-04 02:09:00,26.1,12.4,29.98,West,270,0.4,2.9,56,0.00,,,0.00,WUHU216HW,2013-02-04 07:09:00,
2013-02-04 02:31:00,23.8,11.9,29.97,South,180,0.7,0.7,60,0.00,,,0.00,WUHU216HW,2013-02-04 07:31:00,
2013-02-04 02:36:00,23.6,12.1,29.97,SE,135,0.0,1.1,61,0.00,,,0.00,WUHU216HW,2013-02-04 07:36:00,
2013-02-04 02:41:00,23.2,11.7,29.98,SE,135,1.1,1.3,61,0.00,,,0.00,WUHU216HW,2013-02-04 07:41:00,
2013-02-04 02:46:00,23.0,11.5,29.98,SE,135,1.1,1.3,61,0.00,,,0.00,WUHU216HW,2013-02-04 07:46:00,
2013-02-04 02:51:00,23.0,11.5,29.98,SE,135,1.1,1.1,61,0.00,,,0.00,WUHU216HW,2013-02-04 07:51:00,
2013-02-04 03:00:00,22.3,10.9,29.98,SE,135,0.9,0.9,61,0.00,,,0.00,WUHU216HW,2013-02-04 08:00:00,
2013-02-04 03:05:00,22.1,11.4,29.97,SSE,158,0.7,1.1,63,0.00,,,0.00,WUHU216HW,2013-02-04 08:05:00,
2013-02-04 03:10:00,22.3,11.6,29.98,SSW,203,0.2,1.1,63,0.00,,,0.00,WUHU216HW,2013-02-04 08:10:00,
2013-02-04 03:15:00,22.1,11.4,29.97,SSE,158,0.2,1.1,63,0.00,,,0.00,WUHU216HW,2013-02-04 08:15:00,
2013-02-04 03:20:00,22.0,11.3,29.97,SW,225,0.4,0.7,63,0.00,,,0.00,WUHU216HW,2013-02-04 08:20:00,
2013-02-04 03:25:00,22.0,11.3,29.97,SW,225,0.4,0.7,63,0.00,,,0.00,WUHU216HW,2013-02-04 08:25:00,
2013-02-04 03:30:00,22.0,11.3,29.97,WSW,248,0.0,0.4,63,0.00,,,0.00,WUHU216HW,2013-02-04 08:30:00,
2013-02-04 03:35:00,22.1,11.4,29.98,WSW,248,0.0,0.4,63,0.00,,,0.00,WUHU216HW,2013-02-04 08:35:00,
2013-02-04 03:40:00,22.1,11.4,29.98,WSW,248,0.0,0.4,63,0.00,,,0.00,WUHU216HW,2013-02-04 08:40:00,
2013-02-04 03:49:00,22.7,11.5,29.97,WNW,293,0.0,0.0,62,0.00,,,0.00,WUHU216HW,2013-02-04 08:49:00,
2013-02-04 03:54:00,22.7,11.5,29.97,West,270,0.0,0.7,62,0.00,,,0.00,WUHU216HW,2013-02-04 08:54:00,
2013-02-04 03:59:00,22.5,11.7,29.97,West,270,0.0,0.7,63,0.00,,,0.00,WUHU216HW,2013-02-04 08:59:00,
2013-02-04 04:04:00,22.5,11.7,29.97,WSW,248,0.0,0.4,63,0.00,,,0.00,WUHU216HW,2013-02-04 09:04:00,
2013-02-04 04:09:00,22.5,11.7,29.97,WSW,248,0.0,0.0,63,0.00,,,0.00,WUHU216HW,2013-02-04 09:09:00,
2013-02-04 04:30:00,23.2,12.1,29.97,West,270,0.7,0.7,62,0.00,,,0.00,WUHU216HW,2013-02-04 09:30:00,
2013-02-04 04:35:00,23.2,12.1,29.97,West,270,0.7,0.7,62,0.00,,,0.00,WUHU216HW,2013-02-04 09:35:00,
2013-02-04 05:00:00,23.0,11.5,29.98,West,270,0.4,0.4,61,0.00,,,0.00,WUHU216HW,2013-02-04 10:00:00,
2013-02-04 05:05:00,22.7,11.5,29.98,West,270,0.0,0.7,62,0.00,,,0.00,WUHU216HW,2013-02-04 10:05:00,
2013-02-04 05:10:00,22.5,11.3,29.98,West,270,0.0,0.7,62,0.00,,,0.00,WUHU216HW,2013-02-04 10:10:00,
2013-02-04 05:15:00,22.5,11.3,29.98,West,270,0.0,0.4,62,0.00,,,0.00,WUHU216HW,2013-02-04 10:15:00,
2013-02-04 05:30:00,20.5,10.5,29.99,North,0,0.0,0.0,65,0.00,,,0.00,WUHU216HW,2013-02-04 10:30:00,
2013-02-04 05:35:00,20.3,10.4,29.99,North,0,0.0,0.4,65,0.00,,,0.00,WUHU216HW,2013-02-04 10:35:00,
2013-02-04 05:40:00,20.0,10.0,30.00,NNE,23,0.4,0.4,65,0.00,,,0.00,WUHU216HW,2013-02-04 10:40:00,
2013-02-04 05:45:00,19.8,9.8,30.00,NNE,23,0.0,0.4,65,0.00,,,0.00,WUHU216HW,2013-02-04 10:45:00,
2013-02-04 05:50:00,19.8,10.2,30.00,NNE,23,0.0,0.4,66,0.00,,,0.00,WUHU216HW,2013-02-04 10:50:00,
2013-02-04 05:55:00,19.8,9.8,30.00,NNE,23,0.0,0.4,65,0.00,,,0.00,WUHU216HW,2013-02-04 10:55:00,
2013-02-04 06:00:00,19.4,9.8,30.00,SSW,203,0.0,0.0,66,0.00,,,0.00,WUHU216HW,2013-02-04 11:00:00,
2013-02-04 06:05:00,19.4,9.8,30.00,SSW,203,0.0,0.0,66,0.00,,,0.00,WUHU216HW,2013-02-04 11:05:00,
2013-02-04 06:30:00,20.2,11.2,30.02,WNW,293,0.9,0.9,68,0.00,,,0.00,WUHU216HW,2013-02-04 11:30:00,
2013-02-04 06:35:00,20.2,11.2,30.02,WNW,293,0.9,0.9,68,0.00,,,0.00,WUHU216HW,2013-02-04 11:35:00,
2013-02-04 07:00:00,19.4,11.2,30.04,SE,135,0.9,1.1,70,0.00,,,0.00,WUHU216HW,2013-02-04 12:00:00,
2013-02-04 07:05:00,19.1,10.5,30.04,SE,135,0.0,1.1,69,0.00,,,0.00,WUHU216HW,2013-02-04 12:05:00,
2013-02-04 07:10:00,19.1,10.5,30.04,SE,135,0.0,0.9,69,0.00,,,0.00,WUHU216HW,2013-02-04 12:10:00,
2013-02-04 07:15:00,19.1,10.5,30.04,SE,135,0.0,0.0,69,0.00,,,0.00,WUHU216HW,2013-02-04 12:15:00,
2013-02-04 07:30:00,19.4,11.2,30.04,WNW,293,0.4,0.4,70,0.00,,,0.00,WUHU216HW,2013-02-04 12:30:00,
2013-02-04 07:35:00,19.6,11.3,30.04,WNW,293,0.4,0.4,70,0.00,,,0.00,WUHU216HW,2013-02-04 12:35:00,
2013-02-04 07:40:00,20.0,11.7,30.04,WNW,293,0.0,0.4,70,0.00,,,0.00,WUHU216HW,2013-02-04 12:40:00,
2013-02-04 07:45:00,20.3,11.7,30.04,SSW,203,0.4,0.7,69,0.00,,,0.00,WUHU216HW,2013-02-04 12:45:00,
2013-02-04 07:50:00,20.7,12.1,30.05,West,270,0.4,1.1,69,0.00,,,0.00,WUHU216HW,2013-02-04 12:50:00,
2013-02-04 07:55:00,21.1,12.4,30.04,WSW,248,0.0,1.1,69,0.00,,,0.00,WUHU216HW,2013-02-04 12:55:00,
2013-02-04 08:00:00,21.2,12.6,30.05,NW,315,0.4,0.9,69,0.00,,,0.00,WUHU216HW,2013-02-04 13:00:00,
2013-02-04 08:05:00,21.2,12.6,30.05,NNW,338,0.4,1.1,69,0.00,,,0.00,WUHU216HW,2013-02-04 13:05:00,
2013-02-04 08:10:00,21.2,12.6,30.05,NNW,338,0.4,1.1,69,0.00,,,0.00,WUHU216HW,2013-02-04 13:10:00,
2013-02-04 08:30:00,23.4,15.1,30.06,WSW,248,0.2,0.2,70,0.00,,,0.00,WUHU216HW,2013-02-04 13:30:00,
2013-02-04 08:35:00,24.1,15.4,30.07,WSW,248,0.9,1.1,69,0.00,,,0.00,WUHU216HW,2013-02-04 13:35:00,
2013-02-04 08:40:00,24.5,15.8,30.07,West,270,2.0,2.0,69,0.00,,,0.00,WUHU216HW,2013-02-04 13:40:00,
2013-02-04 08:45:00,24.8,15.7,30.07,WSW,248,1.1,2.0,68,0.00,,,0.00,WUHU216HW,2013-02-04 13:45:00,
2013-02-04 08:50:00,25.2,16.0,30.07,WNW,293,0.7,2.0,68,0.00,,,0.00,WUHU216HW,2013-02-04 13:50:00,
2013-02-04 08:55:00,25.4,15.8,30.07,WSW,248,0.7,1.8,67,0.00,,,0.00,WUHU216HW,2013-02-04 13:55:00,
2013-02-04 09:00:00,25.9,16.0,30.07,WSW,248,0.7,1.1,66,0.00,,,0.00,WUHU216HW,2013-02-04 14:00:00,
2013-02-04 09:05:00,26.3,16.4,30.07,West,270,1.1,1.1,66,0.00,,,0.00,WUHU216HW,2013-02-04 14:05:00,
2013-02-04 09:10:00,26.6,16.7,30.07,West,270,0.4,1.8,66,0.00,,,0.00,WUHU216HW,2013-02-04 14:10:00,
2013-02-04 09:15:00,27.2,16.9,30.07,SSW,203,4.0,4.0,65,0.00,,,0.00,WUHU216HW,2013-02-04 14:15:00,
2013-02-04 09:20:00,27.5,17.3,30.06,SE,135,0.7,4.0,65,0.00,,,0.00,WUHU216HW,2013-02-04 14:20:00,
2013-02-04 09:25:00,27.5,17.3,30.06,SE,135,0.7,4.0,65,0.00,,,0.00,WUHU216HW,2013-02-04 14:25:00,
2013-02-04 09:30:00,28.4,17.1,30.06,ESE,113,0.7,2.5,62,0.00,,,0.00,WUHU216HW,2013-02-04 14:30:00,
2013-02-04 09:35:00,29.0,17.6,30.06,SSE,158,2.7,2.7,62,0.00,,,0.00,WUHU216HW,2013-02-04 14:35:00,
2013-02-04 09:40:00,29.0,17.6,30.06,SSE,158,2.7,2.7,62,0.00,,,0.00,WUHU216HW,2013-02-04 14:40:00,
2013-02-04 10:00:00,30.4,17.7,30.05,WSW,248,1.8,1.8,59,0.00,,,0.00,WUHU216HW,2013-02-04 15:00:00,
2013-02-04 10:05:00,30.4,17.4,30.05,SSW,203,1.3,1.8,58,0.00,,,0.00,WUHU216HW,2013-02-04 15:05:00,
2013-02-04 10:10:00,30.4,17.4,30.05,SSW,203,1.3,1.8,58,0.00,,,0.00,WUHU216HW,2013-02-04 15:10:00,
2013-02-04 10:30:00,31.7,17.7,30.05,SSW,203,1.8,1.8,56,0.00,,,0.00,WUHU216HW,2013-02-04 15:30:00,
2013-02-04 10:35:00,31.7,17.3,30.06,WSW,248,1.1,3.6,55,0.00,,,0.00,WUHU216HW,2013-02-04 15:35:00,
2013-02-04 10:40:00,32.0,17.2,30.06,SW,225,0.9,4.0,54,0.00,,,0.00,WUHU216HW,2013-02-04 15:40:00,
2013-02-04 10:45:00,32.4,18.0,30.05,NE,45,0.9,4.3,55,0.00,,,0.00,WUHU216HW,2013-02-04 15:45:00,
2013-02-04 10:50:00,32.6,18.1,30.05,SW,225,1.8,4.3,55,0.00,,,0.00,WUHU216HW,2013-02-04 15:50:00,
2013-02-04 10:55:00,32.6,17.7,30.05,West,270,1.1,4.0,54,0.00,,,0.00,WUHU216HW,2013-02-04 15:55:00,
2013-02-04 11:00:00,32.9,17.6,30.05,WSW,248,4.5,4.5,53,0.00,,,0.00,WUHU216HW,2013-02-04 16:00:00,
2013-02-04 11:05:00,32.9,17.6,30.05,WSW,248,4.5,4.5,53,0.00,,,0.00,WUHU216HW,2013-02-04 16:05:00,
2013-02-04 11:30:00,33.8,18.0,30.04,West,270,1.1,4.0,52,0.00,,,0.00,WUHU216HW,2013-02-04 16:30:00,
2013-02-04 11:35:00,33.8,18.0,30.04,West,270,1.1,4.0,52,0.00,,,0.00,WUHU216HW,2013-02-04 16:35:00,
2013-02-04 11:40:00,33.8,18.0,30.04,West,270,1.1,4.0,52,0.00,,,0.00,WUHU216HW,2013-02-04 16:40:00,
2013-02-04 12:00:00,34.2,17.9,30.03,SSW,203,5.4,5.4,51,0.00,,,0.00,WUHU216HW,2013-02-04 17:00:00,
2013-02-04 12:05:00,34.2,17.9,30.03,SSW,203,5.4,5.4,51,0.00,,,0.00,WUHU216HW,2013-02-04 17:05:00,
2013-02-04 12:30:00,34.2,18.4,30.02,SSW,203,2.7,3.4,52,0.00,,,0.00,WUHU216HW,2013-02-04 17:30:00,
2013-02-04 12:35:00,34.6,18.7,30.02,ENE,68,2.0,3.8,52,0.00,,,0.00,WUHU216HW,2013-02-04 17:35:00,
2013-02-04 12:40:00,34.9,18.6,30.01,SE,135,4.5,5.4,51,0.00,,,0.00,WUHU216HW,2013-02-04 17:40:00,
2013-02-04 12:45:00,35.1,18.8,30.01,West,270,1.8,6.3,51,0.00,,,0.00,WUHU216HW,2013-02-04 17:45:00,
2013-02-04 12:50:00,34.9,18.6,30.00,SSW,203,2.2,6.3,51,0.00,,,0.00,WUHU216HW,2013-02-04 17:50:00,
2013-02-04 12:55:00,34.9,18.6,30.00,West,270,0.9,6.3,51,0.00,,,0.00,WUHU216HW,2013-02-04 17:55:00,
2013-02-04 13:00:00,34.9,19.1,29.99,SSW,203,3.1,3.8,52,0.00,,,0.00,WUHU216HW,2013-02-04 18:00:00,
2013-02-04 13:05:00,34.9,19.1,29.99,SSW,203,3.1,3.1,52,0.00,,,0.00,WUHU216HW,2013-02-04 18:05:00,
2013-02-04 13:30:00,35.5,19.6,29.98,WSW,248,1.8,1.8,52,0.00,,,0.00,WUHU216HW,2013-02-04 18:30:00,
2013-02-04 13:35:00,35.6,19.8,29.98,WSW,248,5.6,5.6,52,0.00,,,0.00,WUHU216HW,2013-02-04 18:35:00,
2013-02-04 13:40:00,35.6,19.8,29.97,West,270,2.5,5.6,52,0.00,,,0.00,WUHU216HW,2013-02-04 18:40:00,
2013-02-04 13:45:00,36.0,19.6,29.97,SE,135,4.5,6.7,51,0.00,,,0.00,WUHU216HW,2013-02-04 18:45:00,
2013-02-04 13:50:00,36.2,19.8,29.97,SSE,158,5.1,6.7,51,0.00,,,0.00,WUHU216HW,2013-02-04 18:50:00,
2013-02-04 13:55:00,36.4,20.0,29.97,ESE,113,2.2,6.7,51,0.00,,,0.00,WUHU216HW,2013-02-04 18:55:00,
2013-02-04 14:00:00,36.2,19.8,29.96,East,90,1.8,2.2,51,0.00,,,0.00,WUHU216HW,2013-02-04 19:00:00,
2013-02-04 14:05:00,36.2,19.8,29.95,SSE,158,5.1,6.7,51,0.00,,,0.00,WUHU216HW,2013-02-04 19:05:00,
2013-02-04 14:10:00,36.2,20.3,29.95,SSW,203,4.0,6.7,52,0.00,,,0.00,WUHU216HW,2013-02-04 19:10:00,
2013-02-04 14:15:00,36.2,20.3,29.96,WSW,248,0.7,5.8,52,0.00,,,0.00,WUHU216HW,2013-02-04 19:15:00,
2013-02-04 14:20:00,36.2,20.3,29.96,NNW,338,0.7,4.0,52,0.00,,,0.00,WUHU216HW,2013-02-04 19:20:00,
2013-02-04 14:25:00,36.2,20.3,29.96,NNW,338,0.7,2.5,52,0.00,,,0.00,WUHU216HW,2013-02-04 19:25:00,
2013-02-04 14:30:00,35.8,20.3,29.95,WNW,293,2.5,2.5,53,0.00,,,0.00,WUHU216HW,2013-02-04 19:30:00,
2013-02-04 14:35:00,35.6,20.2,29.95,WNW,293,1.8,2.9,53,0.00,,,0.00,WUHU216HW,2013-02-04 19:35:00,
2013-02-04 14:40:00,35.6,20.2,29.95,WNW,293,1.8,2.9,53,0.00,,,0.00,WUHU216HW,2013-02-04 19:40:00,
2013-02-04 14:49:00,36.5,20.6,29.95,WNW,293,1.8,1.8,52,0.00,,,0.00,WUHU216HW,2013-02-04 19:49:00,
2013-02-04 14:54:00,36.5,20.6,29.95,NW,315,4.7,4.7,52,0.00,,,0.00,WUHU216HW,2013-02-04 19:54:00,
2013-02-04 15:00:00,36.7,20.7,29.95,WSW,248,1.8,4.7,52,0.00,,,0.00,WUHU216HW,2013-02-04 20:00:00,
2013-02-04 15:05:00,37.4,21.4,29.95,South,180,2.9,4.0,52,0.00,,,0.00,WUHU216HW,2013-02-04 20:05:00,
2013-02-04 15:10:00,37.8,21.2,29.95,SSW,203,4.0,4.5,51,0.00,,,0.00,WUHU216HW,2013-02-04 20:10:00,
2013-02-04 15:15:00,37.6,20.7,29.94,WSW,248,3.4,5.4,50,0.00,,,0.00,WUHU216HW,2013-02-04 20:15:00,
2013-02-04 15:20:00,37.6,20.7,29.94,WSW,248,3.4,5.4,50,0.00,,,0.00,WUHU216HW,2013-02-04 20:20:00,
2013-02-04 15:30:00,37.3,21.3,29.94,WNW,293,1.8,1.8,52,0.00,,,0.00,WUHU216HW,2013-02-04 20:30:00,
2013-02-04 15:35:00,37.1,21.1,29.93,WNW,293,2.5,2.9,52,0.00,,,0.00,WUHU216HW,2013-02-04 20:35:00,
2013-02-04 15:40:00,37.1,21.1,29.93,West,270,3.1,3.1,52,0.00,,,0.00,WUHU216HW,2013-02-04 20:40:00,
2013-02-04 15:45:00,37.1,21.5,29.94,WSW,248,1.8,3.1,53,0.00,,,0.00,WUHU216HW,2013-02-04 20:45:00,
2013-02-04 15:50:00,37.3,21.3,29.94,SW,225,3.6,4.0,52,0.00,,,0.00,WUHU216HW,2013-02-04 20:50:00,
2013-02-04 15:55:00,37.4,21.4,29.93,NW,315,2.5,8.1,52,0.00,,,0.00,WUHU216HW,2013-02-04 20:55:00,
2013-02-04 16:00:00,37.4,21.4,29.93,WNW,293,1.8,8.1,52,0.00,,,0.00,WUHU216HW,2013-02-04 21:00:00,
2013-02-04 16:05:00,37.4,21.4,29.93,WNW,293,1.8,4.5,52,0.00,,,0.00,WUHU216HW,2013-02-04 21:05:00,
2013-02-04 16:30:00,38.3,21.8,29.92,SSW,203,0.2,0.2,51,0.00,,,0.00,WUHU216HW,2013-02-04 21:30:00,
2013-02-04 16:35:00,38.3,21.8,29.92,SSW,203,0.2,0.2,51,0.00,,,0.00,WUHU216HW,2013-02-04 21:35:00,
2013-02-04 17:00:00,38.5,22.3,29.92,NW,315,1.1,1.3,52,0.00,,,0.00,WUHU216HW,2013-02-04 22:00:00,
2013-02-04 17:05:00,38.5,22.3,29.92,NW,315,1.1,1.3,52,0.00,,,0.00,WUHU216HW,2013-02-04 22:05:00,
2013-02-04 17:30:00,36.9,21.3,29.92,NE,45,0.9,0.9,53,0.00,,,0.00,WUHU216HW,2013-02-04 22:30:00,
2013-02-04 17:35:00,36.4,21.2,29.92,SSW,203,3.4,3.4,54,0.00,,,0.00,WUHU216HW,2013-02-04 22:35:00,
2013-02-04 17:40:00,36.2,21.2,29.92,NW,315,0.4,3.4,54,0.00,,,0.00,WUHU216HW,2013-02-04 22:40:00,
2013-02-04 17:45:00,35.8,21.3,29.92,SW,225,1.8,3.4,55,0.00,,,0.00,WUHU216HW,2013-02-04 22:45:00,
2013-02-04 17:50:00,35.5,20.9,29.92,WSW,248,0.7,2.7,55,0.00,,,0.00,WUHU216HW,2013-02-04 22:50:00,
2013-02-04 17:55:00,35.3,20.7,29.91,SW,225,2.0,2.0,55,0.00,,,0.00,WUHU216HW,2013-02-04 22:55:00,
2013-02-04 18:00:00,35.1,21.0,29.92,NNE,23,0.7,2.0,56,0.00,,,0.00,WUHU216HW,2013-02-04 23:00:00,
2013-02-04 18:05:00,34.9,20.8,29.92,NW,315,0.7,1.1,56,0.00,,,0.00,WUHU216HW,2013-02-04 23:05:00,
2013-02-04 18:10:00,34.9,20.8,29.92,NW,315,0.7,0.9,56,0.00,,,0.00,WUHU216HW,2013-02-04 23:10:00,
2013-02-04 18:30:00,35.3,21.6,29.93,WNW,293,1.1,1.1,57,0.00,,,0.00,WUHU216HW,2013-02-04 23:30:00,
2013-02-04 18:35:00,35.3,21.6,29.93,West,270,0.7,1.3,57,0.00,,,0.00,WUHU216HW,2013-02-04 23:35:00,
2013-02-04 18:40:00,35.3,21.6,29.93,West,270,0.7,1.3,57,0.00,,,0.00,WUHU216HW,2013-02-04 23:40:00,
2013-02-04 19:00:00,34.7,21.4,29.93,NW,315,0.7,0.7,58,0.00,,,0.00,WUHU216HW,2013-02-05 00:00:00,
2013-02-04 19:05:00,34.7,21.4,29.93,NW,315,0.7,0.7,58,0.00,,,0.00,WUHU216HW,2013-02-05 00:05:00,
2013-02-04 19:30:00,33.3,21.0,29.93,West,270,0.4,0.4,60,0.00,,,0.00,WUHU216HW,2013-02-05 00:30:00,
2013-02-04 19:35:00,33.3,21.0,29.93,West,270,0.4,0.4,60,0.00,,,0.00,WUHU216HW,2013-02-05 00:35:00,
2013-02-04 20:00:00,32.0,20.9,29.93,WNW,293,0.0,0.0,63,0.00,,,0.00,WUHU216HW,2013-02-05 01:00:00,
2013-02-04 20:05:00,32.0,20.9,29.93,WNW,293,0.0,0.0,63,0.00,,,0.00,WUHU216HW,2013-02-05 01:05:00,
2013-02-04 20:30:00,31.7,20.9,29.91,West,270,0.9,0.9,64,0.00,,,0.00,WUHU216HW,2013-02-05 01:30:00,
2013-02-04 20:35:00,31.7,20.9,29.91,West,270,0.9,0.9,64,0.00,,,0.00,WUHU216HW,2013-02-05 01:35:00,
2013-02-04 21:00:00,32.4,21.3,29.92,West,270,0.4,0.7,63,0.00,,,0.00,WUHU216HW,2013-02-05 02:00:00,
2013-02-04 21:05:00,32.4,21.3,29.92,West,270,0.4,0.7,63,0.00,,,0.00,WUHU216HW,2013-02-05 02:05:00,
2013-02-04 21:30:00,34.2,22.9,29.92,West,270,1.3,1.3,63,0.00,,,0.00,WUHU216HW,2013-02-05 02:30:00,
2013-02-04 21:35:00,34.2,22.9,29.92,WNW,293,1.3,1.3,63,0.00,,,0.00,WUHU216HW,2013-02-05 02:35:00,
2013-02-04 21:40:00,34.2,22.9,29.92,WNW,293,1.3,1.3,63,0.00,,,0.00,WUHU216HW,2013-02-05 02:40:00,
2013-02-04 22:00:00,34.6,22.9,29.91,West,270,0.7,0.7,62,0.00,,,0.00,WUHU216HW,2013-02-05 03:00:00,
2013-02-04 22:05:00,34.6,22.9,29.91,West,270,0.7,0.7,62,0.00,,,0.00,WUHU216HW,2013-02-05 03:05:00,
2013-02-04 22:10:00,34.6,22.9,29.91,West,270,0.7,0.7,62,0.00,,,0.00,WUHU216HW,2013-02-05 03:10:00,
2013-02-04 22:30:00,35.5,23.8,29.90,WNW,293,0.9,0.9,62,0.00,,,0.00,WUHU216HW,2013-02-05 03:30:00,
2013-02-04 22:35:00,35.5,23.8,29.90,West,270,0.4,0.9,62,0.00,,,0.00,WUHU216HW,2013-02-05 03:35:00,
2013-02-04 22:40:00,35.6,23.9,29.90,West,270,0.9,1.3,62,0.00,,,0.00,WUHU216HW,2013-02-05 03:40:00,
2013-02-04 22:46:00,36.0,24.3,29.90,SW,225,1.8,2.2,62,0.00,,,0.00,WUHU216HW,2013-02-05 03:46:00,
2013-02-04 22:51:00,36.2,24.5,29.90,West,270,1.1,2.2,62,0.00,,,0.00,WUHU216HW,2013-02-05 03:51:00,
2013-02-04 22:56:00,36.2,24.5,29.90,West,270,1.1,2.2,62,0.00,,,0.00,WUHU216HW,2013-02-05 03:56:00,
2013-02-04 23:01:00,37.4,25.6,29.90,WSW,248,1.6,2.9,62,0.00,,,0.00,WUHU216HW,2013-02-05 04:01:00,
2013-02-04 23:06:00,37.4,26.0,29.90,WSW,248,2.2,5.6,63,0.00,,,0.00,WUHU216HW,2013-02-05 04:06:00,
2013-02-04 23:11:00,37.4,26.0,29.90,WSW,248,2.2,5.6,63,0.00,,,0.00,WUHU216HW,2013-02-05 04:11:00,
2013-02-04 23:30:00,36.9,27.7,29.89,WSW,248,0.9,1.6,69,0.00,,,0.00,WUHU216HW,2013-02-05 04:30:00,
2013-02-04 23:35:00,36.7,27.6,29.89,West,270,0.9,1.6,69,0.00,,,0.00,WUHU216HW,2013-02-05 04:35:00,
2013-02-04 23:40:00,36.7,27.6,29.89,West,270,0.9,1.3,69,0.00,,,0.00,WUHU216HW,2013-02-05 04:40:00,